Altus AFB, OK

3:25 AM CDT on October 21, 2019 (GMT -0500)
Altus Air Force Base

Weather History for KLTS - August, 2019

Change the Weather History Date:

Friday, August 23, 2019

  Actual Average Record
Temperature  
Mean Temperature 81 °F -  
Max Temperature 91 °F 93 °F 107 °F (2011)
Min Temperature 71 °F 69 °F 64 °F (2014)
Cooling Degree Days 16    
Growing Degree Days 31 (Base 50)    
Moisture  
Dew Point 67 °F    
Average Humidity 68    
Maximum Humidity 91    
Minimum Humidity 43    
Precipitation  
Precipitation 0.00 in - - ()
Sea Level Pressure  
Sea Level Pressure 29.87 in    
Wind  
Wind Speed 6 mph ()    
Max Wind Speed 20 mph    
Max Gust Speed 24 mph    
Visibility 10.0 miles    
Events      
Averages and records for this station are not official NWS values.
T = Trace of Precipitation, MM = Missing Value Source: Averaged Metar Reports

Daily Weather History Graph

Daily Weather History Graph

Search for Another Location

Airport or City:

Astronomy

Aug. 23, 2019 Rise Set
Actual Time 7:03 AM CDT 8:15 PM CDT
Civil Twilight 6:37 AM CDT 8:41 PM CDT
Nautical Twilight 6:05 AM CDT 9:12 PM CDT
Astronomical Twilight 5:33 AM CDT 9:45 PM CDT
Moon 12:24 AM CDT (8/23) 2:23 PM CDT (8/23)
Length of Visible Light 14h 04m
Length of Day
13h 12m
Waning Gibbous, 49% of the Moon is Illuminated
Aug 23
Waning Gibbous
Aug 30
New
Sep 5
First Quarter
Sep 13
Full
Sep 21
Last Quarter

Hourly Weather History & Observations

Time (CDT) Temp. Heat Index Dew Point Humidity Pressure Visibility Wind Dir Wind Speed Gust Speed Precip Events Conditions
12:56 AM 72.3 °F - 68.9 °F 89% 29.87 in 10.0 mi ENE 5.8 mph - N/A   Partly Cloudy
1:56 AM 72.9 °F - 67.6 °F 84% 29.86 in 10.0 mi ENE 6.9 mph - N/A   Clear
2:56 AM 72.7 °F - 67.8 °F 85% 29.84 in 10.0 mi East 5.8 mph - N/A   Mostly Cloudy
3:56 AM 72.9 °F - 68.0 °F 85% 29.83 in 10.0 mi ENE 4.6 mph - N/A   Partly Cloudy
4:56 AM 72.0 °F - 66.7 °F 84% 29.83 in 10.0 mi East 4.6 mph - N/A   Clear
5:56 AM 72.5 °F - 66.6 °F 82% 29.86 in 10.0 mi Calm Calm - N/A   Clear
6:56 AM 71.2 °F - 67.1 °F 87% 29.88 in 10.0 mi Calm Calm - N/A   Clear
7:56 AM 72.0 °F - 69.1 °F 91% 29.89 in 10.0 mi Calm Calm - N/A   Clear
8:56 AM 75.4 °F - 70.5 °F 85% 29.88 in 10.0 mi South 3.5 mph - N/A   Clear
10:56 AM 83.8 °F 87.8 °F 69.4 °F 62% 29.92 in 10.0 mi ESE 5.8 mph - N/A   Clear
11:56 AM 88.9 °F 91.4 °F 66.0 °F 47% 29.92 in 10.0 mi SSE 5.8 mph - N/A   Clear
12:56 PM 89.6 °F 93.0 °F 67.3 °F 48% 29.90 in 10.0 mi SSE 3.5 mph - N/A   Clear
1:56 PM 90.7 °F 92.8 °F 65.1 °F 43% 29.87 in 10.0 mi South 8.1 mph - N/A   Clear
2:56 PM 91.6 °F 95.7 °F 67.8 °F 46% 29.86 in 10.0 mi SSE 13.8 mph - N/A   Partly Cloudy
3:56 PM 90.3 °F 94.7 °F 68.5 °F 49% 29.85 in 10.0 mi ESE 19.6 mph 24.2 mph N/A   Clear
4:56 PM 88.9 °F 93.0 °F 68.9 °F 51% 29.83 in 10.0 mi SE 16.1 mph - N/A   Clear
5:56 PM 88.3 °F 92.0 °F 68.4 °F 51% 29.83 in 10.0 mi SE 17.3 mph 21.9 mph N/A   Clear
6:56 PM 86.5 °F 89.3 °F 67.3 °F 52% 29.83 in 10.0 mi SSE 13.8 mph - N/A   Clear
7:56 PM 82.9 °F 85.6 °F 67.1 °F 59% 29.84 in 10.0 mi SSE 10.4 mph - N/A   Clear
8:56 PM 79.2 °F - 65.5 °F 63% 29.85 in 10.0 mi SSE 12.7 mph - N/A   Clear
9:56 PM 75.2 °F - 65.5 °F 72% 29.89 in 10.0 mi ESE 9.2 mph - N/A   Clear
10:56 PM 74.8 °F - 65.5 °F 73% 29.92 in 10.0 mi SE 9.2 mph - N/A   Clear